Location: Landeleau
(48.2273°N, 3.7285°W)
Time: 13:55:26
(UTC+00:00)

ATLAS 2AS CENTAUR R/B - Pass Details

Date: 30 March 2020
Orbit: 929 x 1283 km, 63.7° (Epoch: 21 May)

Event Time Altitude Azimuth Distance (km) Brightness Sun altitude
Rises 19:58:57 0° 314° (NW) 4,231 7.2 -13.0°
Reaches altitude 10° 20:02:06 10° 322° (NW) 3,232 6.2 -13.5°
Maximum altitude 20:09:17 38° 29° (NNE) 1,741 3.8 -14.6°
Enters shadow 20:14:20 17° 88° (E) 2,535 4.1 -15.4°
